When you browse on this site, cookies collect data to enhance your experience and personalize the content and advertising you see.
Visit our Privacy Policy to learn more. By continuing to use the site, you agree to this use of cookies and data.
  • In Portugal
  • List of Countries
  • For 7 days
  • Water Temperature
  • Satellite Maps
  • Weather Map
  • Weather Widgets
  • user-avatar
    Login

    Hourly Weather Belek

    Today, 19 December, Wednesday

    Time Temperature Precipitation Wind Pressure Humidity
    00:00 +12°C° 0.8 mm 7 mps 759 mmHg 84%
    01:00 +13°C° 0.8 mm 6 mps 759 mmHg 84%
    02:00 +13°C° 0.8 mm 5 mps 759 mmHg 85%
    03:00 +13°C° 1 mm 5 mps 759 mmHg 85%
    04:00 +13°C° 1 mm 4 mps 758 mmHg 86%
    05:00 +12°C° 1 mm 4 mps 758 mmHg 86%
    06:00 +12°C° 1 mm 4 mps 758 mmHg 85%
    07:00 +12°C° 1 mm 4 mps 758 mmHg 84%
    08:00 +12°C° 1 mm 4 mps 758 mmHg 83%
    09:00 +13°C° 0.7 mm 4 mps 758 mmHg 81%
    10:00 +14°C° 0.7 mm 3 mps 758 mmHg 79%
    11:00 +14°C° 0.7 mm 3 mps 758 mmHg 76%
    12:00 +14°C° 0.6 mm 3 mps 758 mmHg 75%
    13:00 +14°C° 0.6 mm 3 mps 757 mmHg 75%
    14:00 +14°C° 0.6 mm 3 mps 757 mmHg 74%
    15:00 +14°C° 0.8 mm 3 mps 757 mmHg 77%
    16:00 +13°C° 0.8 mm 3 mps 758 mmHg 79%
    17:00 +13°C° 0.8 mm 4 mps 758 mmHg 82%
    18:00 +13°C° 0.5 mm 4 mps 758 mmHg 81%
    19:00 +13°C° 0.5 mm 4 mps 759 mmHg 80%
    20:00 +13°C° 0.5 mm 4 mps 759 mmHg 79%
    21:00 +13°C° 0.2 mm 3 mps 759 mmHg 77%
    22:00 +13°C° 0.2 mm 3 mps 760 mmHg 76%
    23:00 +12°C° 0.2 mm 3 mps 760 mmHg 75%

    Tomorrow, 20 December, Thursday

    Time Temperature Precipitation Wind Pressure Humidity
    00:00 +12°C° 0.1 mm 4 mps 760 mmHg 73%
    01:00 +12°C° 0.1 mm 4 mps 761 mmHg 72%
    02:00 +10°C° 0.1 mm 5 mps 761 mmHg 70%
    03:00 +10°C° 0 mm 5 mps 762 mmHg 69%
    04:00 +10°C° 0 mm 5 mps 762 mmHg 69%
    05:00 +10°C° 0 mm 6 mps 762 mmHg 68%
    06:00 +10°C° 0 mm 6 mps 763 mmHg 67%
    07:00 +10°C° 0 mm 6 mps 763 mmHg 66%
    08:00 +10°C° 0 mm 5 mps 764 mmHg 65%
    09:00 +12°C° 0 mm 5 mps 764 mmHg 61%
    10:00 +14°C° 0 mm 5 mps 764 mmHg 57%
    11:00 +15°C° 0 mm 5 mps 764 mmHg 53%
    12:00 +16°C° 0 mm 5 mps 764 mmHg 52%
    13:00 +16°C° 0 mm 5 mps 764 mmHg 51%
    14:00 +18°C° 0 mm 4 mps 764 mmHg 50%
    15:00 +15°C° 0 mm 4 mps 764 mmHg 53%
    16:00 +14°C° 0 mm 4 mps 764 mmHg 56%
    17:00 +13°C° 0 mm 4 mps 765 mmHg 59%
    18:00 +13°C° 0 mm 4 mps 765 mmHg 60%
    19:00 +12°C° 0 mm 4 mps 766 mmHg 60%
    20:00 +12°C° 0 mm 4 mps 766 mmHg 61%
    21:00 +12°C° 0 mm 4 mps 767 mmHg 61%
    22:00 +12°C° 0 mm 4 mps 767 mmHg 61%
    23:00 +11°C° 0 mm 4 mps 767 mmHg 61%

    Day after tomorrow, 21 December, Friday

    Time Temperature Precipitation Wind Pressure Humidity
    00:00 +11°C° 0 mm 4 mps 767 mmHg 61%
    01:00 +11°C° 0 mm 3 mps 767 mmHg 61%
    02:00 +11°C° 0 mm 3 mps 767 mmHg 60%
    03:00 +11°C° 0 mm 3 mps 767 mmHg 60%
    04:00 +11°C° 0 mm 3 mps 767 mmHg 60%
    05:00 +11°C° 0 mm 3 mps 767 mmHg 60%
    06:00 +12°C° 0 mm 2 mps 767 mmHg 60%
    07:00 +12°C° 0 mm 2 mps 768 mmHg 60%
    08:00 +12°C° 0 mm 2 mps 768 mmHg 60%
    09:00 +14°C° 0 mm 2 mps 768 mmHg 56%
    10:00 +16°C° 0 mm 2 mps 768 mmHg 51%
    11:00 +18°C° 0 mm 1 mps 768 mmHg 46%
    12:00 +18°C° 0 mm 1 mps 767 mmHg 47%
    13:00 +18°C° 0 mm 1 mps 767 mmHg 48%
    14:00 +19°C° 0 mm 1 mps 766 mmHg 50%
    15:00 +16°C° 0 mm 1 mps 766 mmHg 56%
    16:00 +15°C° 0 mm 1 mps 766 mmHg 63%
    17:00 +13°C° 0 mm 1 mps 766 mmHg 70%
    18:00 +13°C° 0 mm 1 mps 767 mmHg 70%
    19:00 +13°C° 0 mm 1 mps 767 mmHg 71%
    20:00 +13°C° 0 mm 1 mps 767 mmHg 71%
    21:00 +12°C° 0 mm 1 mps 767 mmHg 71%
    22:00 +12°C° 0 mm 2 mps 767 mmHg 70%
    23:00 +12°C° 0 mm 2 mps 767 mmHg 69%

    22 December, Saturday

    Time Temperature Precipitation Wind Pressure Humidity
    00:00 +12°C° 0 mm 2 mps 767 mmHg 68%
    01:00 +12°C° 0 mm 2 mps 767 mmHg 66%
    02:00 +12°C° 0 mm 2 mps 766 mmHg 65%
    03:00 +12°C° 0 mm 2 mps 766 mmHg 64%
    04:00 +12°C° 0 mm 2 mps 766 mmHg 63%
    05:00 +12°C° 0 mm 2 mps 766 mmHg 62%
    06:00 +12°C° 0 mm 2 mps 766 mmHg 61%
    07:00 +12°C° 0 mm 2 mps 767 mmHg 60%
    08:00 +13°C° 0 mm 2 mps 767 mmHg 59%
    09:00 +14°C° 0 mm 2 mps 767 mmHg 53%
    10:00 +16°C° 0 mm 2 mps 767 mmHg 48%
    11:00 +19°C° 0 mm 1 mps 766 mmHg 42%
    12:00 +19°C° 0 mm 1 mps 766 mmHg 42%
    13:00 +19°C° 0 mm 1 mps 765 mmHg 42%
    14:00 +19°C° 0 mm 1 mps 765 mmHg 42%
    15:00 +18°C° 0 mm 1 mps 765 mmHg 49%
    16:00 +15°C° 0 mm 1 mps 765 mmHg 55%
    17:00 +14°C° 0 mm 1 mps 765 mmHg 62%
    18:00 +14°C° 0 mm 1 mps 765 mmHg 61%
    19:00 +13°C° 0 mm 1 mps 766 mmHg 60%
    20:00 +13°C° 0 mm 1 mps 766 mmHg 59%
    21:00 +13°C° 0 mm 1 mps 766 mmHg 58%
    22:00 +13°C° 0 mm 1 mps 766 mmHg 57%
    23:00 +13°C° 0 mm 1 mps 766 mmHg 56%

    23 December, Sunday

    Time Temperature Precipitation Wind Pressure Humidity
    00:00 +12°C° 0 mm 1 mps 766 mmHg 56%
    01:00 +12°C° 0 mm 1 mps 766 mmHg 57%
    02:00 +12°C° 0 mm 1 mps 766 mmHg 57%
    03:00 +12°C° 0 mm 1 mps 765 mmHg 57%
    04:00 +12°C° 0 mm 1 mps 765 mmHg 57%
    05:00 +12°C° 0 mm 1 mps 765 mmHg 57%
    06:00 +12°C° 0 mm 2 mps 765 mmHg 57%
    07:00 +12°C° 0 mm 2 mps 766 mmHg 57%
    08:00 +12°C° 0 mm 2 mps 766 mmHg 57%
    09:00 +14°C° 0 mm 2 mps 766 mmHg 54%
    10:00 +15°C° 0 mm 2 mps 766 mmHg 52%
    11:00 +17°C° 0 mm 2 mps 766 mmHg 49%
    12:00 +17°C° 0 mm 2 mps 765 mmHg 51%
    13:00 +17°C° 0 mm 2 mps 765 mmHg 53%
    14:00 +17°C° 0 mm 2 mps 765 mmHg 55%
    15:00 +16°C° 0 mm 1 mps 765 mmHg 61%
    16:00 +14°C° 0 mm 1 mps 765 mmHg 68%
    17:00 +13°C° 0 mm 1 mps 765 mmHg 75%
    18:00 +13°C° 0 mm 1 mps 765 mmHg 74%
    19:00 +13°C° 0 mm 1 mps 765 mmHg 73%
    20:00 +13°C° 0 mm 1 mps 766 mmHg 72%
    21:00 +13°C° 0 mm 1 mps 766 mmHg 70%
    22:00 +13°C° 0 mm 2 mps 766 mmHg 68%
    23:00 +13°C° 0 mm 2 mps 766 mmHg 65%

    24 December, Monday

    Time Temperature Precipitation Wind Pressure Humidity
    00:00 +12°C° 0 mm 2 mps 766 mmHg 63%
    01:00 +12°C° 0 mm 2 mps 766 mmHg 60%
    02:00 +12°C° 0 mm 2 mps 765 mmHg 58%
    03:00 +12°C° 0 mm 1 mps 765 mmHg 56%
    04:00 +12°C° 0 mm 1 mps 765 mmHg 54%
    05:00 +12°C° 0 mm 1 mps 765 mmHg 52%
    06:00 +12°C° 0 mm 1 mps 765 mmHg 51%
    07:00 +13°C° 0 mm 1 mps 766 mmHg 50%
    08:00 +13°C° 0 mm 1 mps 766 mmHg 50%
    09:00 +15°C° 0 mm 1 mps 766 mmHg 46%
    10:00 +16°C° 0 mm 1 mps 766 mmHg 43%
    11:00 +19°C° 0 mm 1 mps 766 mmHg 40%
    12:00 +19°C° 0 mm 1 mps 765 mmHg 42%
    13:00 +19°C° 0 mm 1 mps 765 mmHg 44%
    14:00 +19°C° 0 mm 1 mps 764 mmHg 46%
    15:00 +18°C° 0 mm 1 mps 764 mmHg 52%
    16:00 +15°C° 0 mm 1 mps 764 mmHg 59%
    17:00 +12°C° 0 mm 0 mps 764 mmHg 66%
    18:00 +12°C° 0 mm 0 mps 764 mmHg 66%
    19:00 +12°C° 0 mm 0 mps 764 mmHg 67%
    20:00 +12°C° 0 mm 0 mps 765 mmHg 67%
    21:00 +13°C° 0 mm 1 mps 765 mmHg 67%
    22:00 +12°C° 0 mm 1 mps 765 mmHg 67%
    23:00 +12°C° 0 mm 1 mps 765 mmHg 67%
    Show more